AMAZONAS

导读 | 豆包AI

AMAZONAS卫星由巴西(BR)于2004年8月4日08:00发射升空,卫星命名源自巴西境内的亚马孙盆地,是巴西航天领域布局空间基础设施的重要实践。该卫星主要服务于南美地区通信覆盖,助力区域广播电视传输与宽带互联网接入,推动拉美地区信息化发展,也是巴西自主空间探索进程中的标志性成果之一。

基本信息
目录编号:
28393
目录名称:
AMAZONAS
国际标识:
2004-031A
轨道中心:
EARTH
卫星名称:
AMAZONAS
卫星全名:
--
卫星状态:
在轨 (已飞行7882 天)
发射日期:
2004-08-04 UTC
国别 :
巴西 (BR)
星等 :
--
轨道信息
数据来源 国际轨道数据 AOE轨道数据
星历时间 2026-03-04T08:40:57+0800
9小时前
查看轨道信息
2026-03-04T07:00:00+0800
10小时前
查看轨道信息
半长轴 42681.715km 42681.715km
偏心率 0.0008036 0.0008025
轨道倾角 9.157° 9.156°
近地点辐角 102.277° 102.299°
升交点赤经 60.087° 60.089°
平近点角 80.628° 55.757°
近地点 36269.278km 36269.325km
远地点 36337.878km 36337.831km
周期 1462.590分钟 1462.590分钟
每日圈数 0.984555 0.984555
详细信息
使用方式:
暂无
2D轨道图
3D轨道图
轨道高度分析图
轨道倾角分析图
轨道综合分析图
查看轨道综合分析图